ONEWEB-0202, 48224

Orbit data source: Space-Track

ONEWEB-0202, 48224 is a payload satellite owned by One Web (NAA) (UK) in LEO that was launched on Sun, 25 Apr 2021 UTC via a SOYUZ-2-1B launch vehicle from the Vostochny Cosmodrome (VOSTO). Payload-class satellites include a variety of spacecraft equipped with specific instruments for various scientific and technological missions. These include communications satellites like Starlink; space stations such as the ISS; scientific satellites like the Hubble; Earth observation satellites from companies like Planet Labs, Umbra, and HawkEye 360; GPS; miniature CubeSats for education and research; and military/defense satellites.

Loading next visibility...
Identifier
48224, 2021-031Q
Orbit
LEO
Country
Flag of UKUK
Related business
Manufacturer
One Web
Mission
Operational Commercial Communications
Bus & Motor
ARROW, Unknown motor
Mass
148 kg wet, ~140 kg dry
Launch date (UTC)
2021-04-25 (5 years ago)
Launch vehicle
SOYUZ-2-1B
Launch site
Vostochny Cosmodrome (VOSTO)
Object type
Payload
Rocket body
Debris
Shape & HBR
Trap Box + 2 Pan, 6.7 m
Radar Cross Section
3.464 m², Large (>1 m²)

Expand to show TLE details & history
Last TLE update: 21 hours ago

TLE from 21 hours ago
0 ONEWEB-0202
1 48224U 21031Q   26094.06563680 -.00000112  00000-0 -33557-3 0  9994
2 48224  87.8940 304.5024 0002288  75.3792 284.7592 13.14502927238621
Epoch: 2026-04-04T01:34Z
TLE epoch observation values (Epoch: 2026-04-04T01:34:31.019Z)
Latitude
0.00005°
Longitude
88.4824°
Altitude
1,208.242 km
Speed
7.25 km/s
True Right ascension
20h 18m 00s
True Declination
0° 00' 00"
Sunlit
Object was in daylight at epoch
Visualization orbit readout
Latitude
Unknown
Longitude
Unknown
Altitude
Unknown
Speed
Unknown
Apparent Right ascension
Unknown
Apparent Declination
Unknown
Sunlit
N/A
Visualization observer readout
Local Sidereal Time
04:09:21
Azimuth
Unknown
Elevation
Unknown
Doppler factor
Unknown
Orbital elements
Apogee altitude
1,204.638 km
Perigee altitude
1,201.169 km
Semi-major axis
7,581.04 km
Eccentricity
0.00023
Inclination
87.894°
RAAN
304.5024°
Arg. of periapsis
75.3792°
True anomaly
284.73384°
Mean anomaly
284.7592°
Eccentric anomaly
284.74652°
Mean motion
3.28814 °/min
Orbital period
109.48 mins
BSTAR
-0.00033557
Loading maneuver chart data...
Computing Atmospheric mass density...
Loading historical data...
Loading historical data...
Loading historical data...
Loading historical data...
Loading historical data...
Loading historical data...
Loading historical data...

Documentation

Showing up to 5 results
|